Regional Weather Roundup
Issued by NWS

Home | Current Version | Previous Version | Text Only | Print | Product List | Glossary Off
Versions: 1 2 3 4 5 6 7 8 9 10 11 12 13 14 15 16 17 18 19 20 21 22 23 24 25 26 27 28 29 30 31 32 33 34 35 36 37 38 39 40 41 42 43 44 45 46 47 48 49 50

000
ASUS43 KMKX 201311
RWRWI

WISCONSIN REGIONAL WEATHER ROUNDUP
NATIONAL WEATHER SERVICE MILWAUKEE/SULLIVAN WI
800 AM CDT WED SEP 20 2017

NOTE: "FAIR" INDICATES FEW OR NO CLOUDS BELOW 12,000 FEET WITH NO
SIGNIFICANT WEATHER AND/OR OBSTRUCTIONS TO VISIBILITY.

WIZ001-002-006>008-014>016-023>028-201400-
NORTHWEST WISCONSIN

CITY           SKY/WX    TMP DP  RH WIND       PRES   REMARKS
SUPERIOR ARPT  CLOUDY    62  61  96 CALM      29.65S
ASHLAND        CLOUDY    63  61  93 SE6       29.71F
HAYWARD        CLOUDY    65  61  87 SE13G22   29.70S
SIREN          CLOUDY    67  64  91 S8        29.66R
CUMBERLAND     CLOUDY    64  63  94 SE12      29.69R
RICE LAKE      CLOUDY    65  63  91 SE17      29.71S
CHETEK         CLOUDY    64  64  97 SE14G22   29.71F
LADYSMITH      CLOUDY    65  62  93 SE9       29.76S
EAU CLAIRE     CLOUDY    65  63  93 SE9       29.71R
MENOMONIE      CLOUDY    65  65 100 E13       29.69S
NEW RICHMOND   PTSUNNY   69  63  80 S10       29.66R
OSCEOLA        CLOUDY    70  65  82 S7        29.68R
$$

WIZ003>005-009-010-017-018-201400-
NORTH CENTRAL WISCONSIN

CITY           SKY/WX    TMP DP  RH WIND       PRES   REMARKS
MANITOWISH WTR CLOUDY    60  60 100 SE8       29.82F
ARBOR VITAE    TSTM      62  60  93 SE7       29.84F
WOODRUFF       TSTM      62  60  93 SE7       29.84F
RHINELANDER    TSTM      61  61 100 E7        29.88R FOG
EAGLE RIVER    CLOUDY    61  60  96 E10G17    29.85S
LAND O LAKES   CLOUDY    61  58  90 NW5       29.91R
PHILLIPS       CLOUDY    62  62 100 SE10G17   29.77F
TOMAHAWK       LGT RAIN  60  59  94 E3        29.85R
MEDFORD        CLOUDY    61  60  96 SE7       29.81F FOG
MERRILL        NOT AVBL
$$

WIZ029-030-035-036-043>047-201400-
CENTRAL WISCONSIN

CITY           SKY/WX    TMP DP  RH WIND       PRES   REMARKS
WAUSAU         TSTM      63  61  93 SE9       29.81R FOG
MOSINEE        PTSUNNY   63  61  94 SE12G21   29.81F FOG
MARSHFIELD     CLOUDY    64  60  87 S10       29.80R
STEVENS POINT  CLOUDY    63  62  98 SE13      29.82F FOG
WAUPACA        MOSUNNY   65  64  97 SE8       29.84F FOG
WAUTOMA        CLOUDY    63  62  97 SE3       29.84F FOG
WISC RAPIDS    CLOUDY    65  62  90 S6        29.82R THUNDER
CAMP DOUGLAS   TSTM      66  64  94 S3        29.80R
$$

WIZ011>013-019>022-031-037>040-048>050-201400-
NORTHEAST WISCONSIN

CITY           SKY/WX    TMP DP  RH WIND       PRES   REMARKS
ANTIGO         CLOUDY    59  59 100 SE16G23   29.84F FOG
SHAWANO        CLOUDY    64  62  93 SE8       29.87S FOG
OCONTO         CLOUDY    65  63  94 S9        29.90R
STURGEON BAY   CLOUDY    65  63  93 SE13      29.92S FOG
GREEN BAY      CLOUDY    65  65 100 SE13      29.88F FOG
MANITOWOC      CLOUDY    66  64  94 SE12      29.92S FOG
APPLETON       PTSUNNY   64  64 100 SE10      29.86F FOG
CLINTONVILLE   CLOUDY    61  61 100 SE6       29.86S FOG
OSHKOSH        CLOUDY    66  63  90 SE13      29.85F FOG
$$

WIZ032>034-041-042-053>061-201400-
SOUTHWEST WISCONSIN

CITY           SKY/WX    TMP DP  RH WIND       PRES   REMARKS
LA CROSSE      SUNNY     71  65  81 S13       29.74S
SPARTA         PTSUNNY   66  63  89 SE6       29.78S
VIROQUA        PTSUNNY   66  65  95 S10       29.80R
BOSCOBEL       MOSUNNY   71  63  75 CALM      29.80R
PRAIRIE DU CHI PTSUNNY   69  62  79 E6        29.79R
PLATTEVILLE    MOSUNNY   67  67  98 SE13      29.82R
$$

WIZ056-057-062-063-064-067-068-201400-
SOUTH CENTRAL WISCONSIN

CITY           SKY/WX    TMP DP  RH WIND       PRES   REMARKS
REEDSBURG      CLOUDY    67  65  94 SE6       29.82R
BARABOO/DELLS  CLOUDY    67  62  83 S14       29.82R
LONE ROCK      MOSUNNY   68  65  90 SE7       29.81S
MINERAL POINT  CLOUDY    68  66  94 SE8       29.84R FOG
MADISON        PTSUNNY   68  64  87 S15       29.84S
MIDDLETON      PTSUNNY   68  65  88 SE8       29.85S
WATERTOWN      SUNNY     66  66 100 SE8       29.87S FOG
MONROE         MOSUNNY   68  63  83 S17G23    29.85S
JANESVILLE     PTSUNNY   70  66  88 SE12      29.86F
$$

WIZ051-052-058>065-066-070>072-201400-
SOUTHEAST WISCONSIN

CITY           SKY/WX    TMP DP  RH WIND       PRES   REMARKS
MILWAUKEE      CLOUDY    68  68 100 SE10      29.92R FOG
WAUKESHA       SUNNY     64  64 100 SE9       29.92F FOG
MILWAUKEE/TIMM FOG       64  63  94 SE5       29.92S VSB 1
RACINE         CLOUDY    69  68  96 SE9       29.94S FOG
BURLINGTON     PTSUNNY   64  64 100 SE5       29.90F FOG
KENOSHA        MOSUNNY   67  66  97 SE8       29.92S FOG
FOND DU LAC    MOSUNNY   66  62  87 SE10      29.88S
SHEBOYGAN      CLOUDY    66  66 100 SE9       29.92S FOG
WEST BEND      FOG       63  63 100 SE8       29.91S VSB 1/2
JUNEAU         SUNNY     65  64  94 SE12      29.88F FOG
$$

LSZ147-162-201400-
LAKE SUPERIOR

STATION/POSITION TIME  TEMP    WIND        PRES    WAVE
                       AIR SEA DIR/SP/G            HT/PER
                 (UTC) (F)     (DEG/KT/KT) (MB)    (FT/S)
W MID LAKE BUOY  1250   60 54  140/ 17/ 19 1007.0S   3/ 4
DEVILS ISLAND    1300   63     150/ 12/ 18 1005.6F
PORT WING        1240   63     120/  7/ 11 1004.7F
SAXON HARBOR     1240   65     170/  4/ 11 1006.1F
$$

LMZ867-665-643>646-201400-
LAKE MICHIGAN

STATION/POSITION TIME  TEMP    WIND        PRES    WAVE
                       AIR SEA DIR/SP/G            HT/PER
                 (UTC) (F)     (DEG/KT/KT) (MB)    (FT/S)
S GREEN BAY BUOY 1300   65 66  150/ 12/ 16 1012.4
N MID LAKE BUOY  1250   65 64  150/ 12/ 14 1014.3F   2/ 3
NORTHPORT PIER   1240   65     150/ 13/ 17 1012.9F
KEWAUNEE LAKESHO 1248   62     150/ 11/ 13 1012.2F
SHEBOYGAN LAKESH 1300   65     150/ 15/ 15 1012.6F
PORT WASHINGTON  1230   68     150/  9/ 10 1013.9S
ATWATER BUOY     1209   68 68  150/ 12/ 14 1013.2S
MILWAUKEE LAKESH 1250   67     150/ 13/ 14   N/A
S MID LAKE BUOY  1250   68 68  110/ 12/ 12 1013.9S   1
KENOSHA   LAKESH 1300   68     150/ 11/ 12 1013.2
$$

TC  - TEMPERATURE IN CELSIUS
VSB - VISIBILITY IN STATUTE MILES
WCI - WIND CHILL INDEX
HX  - HEAT INDEX





USA.gov is the U.S. government's official web portal to all federal, state and local government web resources and services.